Wind_Speed
12 13 15 14 14 16 15 12 12 10 10 9 5 5 8 10 13 13 12 9 8 6 13 15 16 16 17 17 17 15 15 15 17 18 19 22 25 24 21 20 22 21 19 16 14 11 10 11 11
12 15 18 17 17 17 15 14 11 9 8 8 7 7 8 11 9 11 8 8 7 8 9 11 15 18 20 20 19 16 15 14 15 16 18 19 21 23 23 22 19 18 20 20 21 20 16 14 14
13 16 18 18 18 14 12 11 10 9 7 9 8 7 9 12 11 9 9 6 5 5 6 7 12 16 21 21 20 16 13 14 15 16 17 18 19 20 22 23 23 20 19 18 19 20 20 20 18
15 16 18 18 12 10 11 10 9 9 9 7 7 9 11 13 12 9 6 4 4 3 5 9 13 17 22 22 24 23 17 14 16 17 18 20 21 21 22 21 23 22 21 20 21 22 21 21 20
17 18 16 12 11 9 10 9 9 8 8 7 9 11 13 16 13 10 7 3 1 2 4 8 14 20 22 24 27 27 23 17 17 17 19 21 23 24 24 24 24 23 22 22 21 21 23 22 21
19 17 15 13 11 10 9 9 9 9 8 9 10 12 15 16 14 13 8 5 3 3 6 11 16 21 23 25 27 26 22 19 18 19 20 22 23 24 24 23 24 24 23 25 24 23 23 24 23
20 16 15 11 9 9 9 10 10 9 7 10 11 14 16 18 19 16 13 11 7 7 10 14 20 23 25 27 27 26 24 22 20 20 21 23 25 24 23 23 24 25 26 25 26 26 26 25 26
18 18 16 12 11 8 11 11 11 8 11 10 13 14 19 23 22 18 16 15 14 13 14 19 23 25 26 27 28 28 25 22 23 23 24 23 21 19 20 23 25 26 26 28 28 29 30 30 28
18 16 15 13 9 8 12 13 12 12 11 10 16 19 19 21 22 20 20 19 18 18 19 22 25 27 28 28 29 26 24 25 26 25 23 18 16 19 20 21 23 25 27 29 31 33 33 33 32
16 16 14 11 10 13 13 15 15 11 13 13 17 19 19 21 22 22 22 21 21 21 24 26 26 28 30 30 30 27 26 27 27 26 22 19 20 21 22 25 26 29 31 32 33 34 35 36 34
16 14 14 15 14 13 15 15 17 13 15 13 18 21 21 22 23 22 23 24 25 26 27 26 27 30 32 32 30 28 27 28 28 25 22 22 23 23 26 30 34 35 35 36 35 34 33 34 34
16 15 16 16 18 15 19 16 20 17 16 16 20 23 26 26 26 26 27 29 28 27 25 27 30 32 32 31 30 28 28 28 28 25 24 23 24 25 29 33 35 37 38 37 36 36 34 33 32
18 17 19 19 21 19 20 20 22 21 19 20 23 24 26 29 29 29 28 28 27 26 27 29 32 33 32 31 30 29 29 28 28 26 26 27 28 30 32 36 38 38 36 34 33 34 35 35 35
22 22 24 21 22 22 23 23 22 24 24 24 24 27 27 29 32 31 31 28 26 27 29 31 32 32 32 32 32 32 32 31 29 28 29 29 31 33 35 40 39 37 35 34 36 35 36 37 38
26 26 25 23 25 25 27 23 23 32 26 27 28 29 30 31 32 32 31 27 26 29 30 31 31 32 33 33 33 34 35 34 30 29 30 31 33 35 39 40 38 37 38 40 41 42 41 42 42
29 29 26 28 28 29 32 23 28 30 27 33 31 31 33 34 34 32 29 28 27 28 30 32 33 34 35 34 35 36 36 34 31 31 32 33 36 38 41 41 40 41 43 44 45 46 47 49 50
29 30 33 33 31 34 34 29 30 32 31 34 35 34 34 34 33 32 29 29 27 28 32 33 36 36 37 36 37 37 38 35 34 34 36 37 39 41 45 45 45 47 48 48 48 49 50 52 54
35 37 35 36 34 37 35 31 34 34 34 36 38 36 35 34 32 35 30 29 30 30 32 35 37 39 40 39 39 38 38 37 36 37 39 40 41 46 49 48 50 51 52 52 52 55 57 59 61
38 38 36 37 40 41 36 31 35 39 35 35 37 41 39 35 36 36 32 32 33 35 35 37 40 43 42 41 39 39 39 38 39 40 41 42 46 51 51 51 52 55 54 54 57 60 62 65 66
39 42 39 42 42 44 42 33 38 39 39 39 39 41 38 38 37 36 35 35 36 38 39 42 44 43 43 42 40 40 40 41 42 42 43 46 50 53 52 53 57 56 57 61 64 66 68 70 76
41 44 44 46 48 46 45 42 42 41 41 40 40 39 41 39 38 37 36 36 40 40 42 45 46 46 44 43 41 42 42 43 43 44 46 50 53 52 53 57 58 59 63 66 68 71 74 81 91
46 45 48 48 49 49 49 49 45 43 41 42 39 41 40 41 41 36 35 38 41 43 44 47 46 45 44 42 43 41 42 42 44 47 50 53 52 53 56 58 60 64 67 69 72 77 86 95 104
50 50 50 50 50 53 52 56 46 44 43 43 41 42 38 42 42 33 33 38 42 45 47 46 47 45 43 41 41 40 42 45 48 50 51 52 53 55 58 60 64 67 69 72 79 87 96 105 107
50 50 48 50 52 56 51 52 45 44 44 42 40 39 39 41 39 35 36 40 44 47 47 45 45 44 41 40 40 42 46 48 47 49 51 51 52 56 58 63 67 68 71 78 87 95 106 97 97
46 46 47 52 55 54 49 52 48 45 46 47 41 40 38 41 42 38 42 44 45 45 43 43 43 41 40 40 43 46 46 46 48 49 50 51 52 56 61 65 66 69 75 84 93 100 95 91 80
47 48 51 54 55 53 51 57 49 46 41 45 42 40 39 40 40 40 43 42 43 42 41 42 41 41 40 42 44 44 46 47 48 49 50 50 53 58 63 65 68 72 80 88 91 90 82 87 73
51 54 44 49 53 56 52 49 44 42 40 39 38 37 35 40 36 38 41 41 41 40 40 41 39 39 40 42 43 44 46 46 46 48 48 50 54 60 63 65 69 75 82 90 85 76 77 80 52
56 53 53 54 56 55 53 51 47 41 40 38 38 37 36 40 36 40 40 39 40 39 39 37 37 39 41 41 43 44 45 45 46 48 49 51 57 62 63 66 69 77 85 89 76 75 73 70 33
57 58 59 55 55 57 58 57 46 42 41 41 41 41 39 41 39 42 40 39 36 38 37 36 37 39 41 42 44 44 44 45 47 48 49 53 58 61 63 65 70 79 86 83 69 68 69 57 26
59 59 57 62 64 61 62 64 45 46 48 45 46 43 41 43 41 42 44 42 37 38 37 37 38 39 42 44 44 44 44 45 47 47 51 55 59 60 63 66 71 79 85 75 65 63 61 47 29
Wind_Direction
173 172 173 170 155 145 142 141 139 149 143 136 114 124 126 123 119 105 127 104 105 57 75 61 47 34 28 28 24 24 22 22 21 18 16 17 18 19 20 21 22 28 28 23 12 355 336 325 313
184 180 177 169 160 157 154 151 153 157 157 134 151 153 145 135 134 139 132 113 94 82 69 53 37 28 21 15 10 9 8 9 13 9 3 -0 5 10 13 17 14 18 26 29 28 26 15 352 328
187 180 177 174 166 158 154 163 165 167 158 139 153 145 151 149 151 156 136 131 109 79 49 26 16 15 11 9 8 5 1 355 355 355 353 349 354 0 4 4 7 359 356 358 2 7 5 6 3
185 183 178 177 160 166 167 173 175 170 157 154 152 169 171 171 172 157 141 127 120 71 28 11 1 357 356 0 357 353 353 350 349 345 342 341 339 345 350 351 353 355 350 344 345 347 348 350 350
184 182 181 172 182 169 178 182 182 174 159 159 187 180 184 185 181 174 182 134 21 27 0 348 352 348 349 349 351 346 344 341 338 335 331 329 329 334 340 341 342 344 343 343 340 338 340 343 340
184 187 192 193 193 183 194 192 195 189 180 181 201 193 194 194 196 208 212 221 238 266 317 336 341 344 345 346 343 340 336 332 328 322 314 311 313 319 325 326 329 332 332 332 332 330 330 329 331
189 197 206 198 218 194 203 206 208 209 202 190 203 204 205 201 210 219 221 239 240 281 303 328 332 336 340 339 337 334 329 324 320 313 306 302 306 311 315 319 321 323 324 324 323 323 323 324 324
194 204 210 210 215 202 218 219 222 217 211 212 208 205 208 212 219 227 237 251 259 266 297 320 324 326 333 332 332 330 324 323 319 312 305 302 304 305 310 317 321 322 321 319 318 316 316 317 315
205 214 222 226 221 219 225 230 230 229 240 216 209 219 224 224 230 239 247 256 261 272 294 313 318 325 327 326 326 325 323 320 317 311 306 306 308 310 315 316 316 316 318 317 315 312 310 310 311
212 221 231 239 232 222 230 235 239 237 245 230 225 231 231 234 238 243 250 255 267 284 299 307 310 317 320 320 318 318 320 317 312 306 302 302 304 308 310 311 311 313 312 311 309 306 305 305 306
217 226 234 235 236 233 243 240 252 245 251 241 234 232 237 239 244 249 255 264 276 290 300 305 311 314 315 314 312 314 316 312 307 298 291 297 305 303 305 308 310 312 312 309 307 305 303 303 305
229 230 238 246 250 243 250 246 254 254 248 239 237 233 236 240 248 254 260 270 281 291 296 303 309 311 312 310 310 311 312 307 302 293 289 295 303 306 306 308 311 310 308 305 302 301 299 297 296
237 240 240 247 252 257 257 256 254 261 252 248 244 248 243 245 252 259 264 272 282 288 294 302 307 311 309 308 309 311 312 306 298 290 288 296 305 306 307 309 307 304 302 300 299 298 296 294 293
241 239 248 250 262 264 262 260 264 264 257 253 246 244 246 244 249 257 263 270 278 286 294 301 306 307 307 307 309 310 312 307 296 287 287 295 300 301 303 307 305 300 296 293 291 290 291 289 288
248 249 253 263 264 268 269 264 265 261 265 261 257 252 247 246 248 253 260 269 276 284 293 299 304 304 305 306 306 306 309 305 294 288 287 292 296 300 303 303 304 300 296 294 293 289 288 286 284
254 257 260 261 263 266 267 265 263 267 264 265 260 259 255 252 253 258 262 267 274 283 290 298 302 303 304 305 304 303 306 302 293 289 290 294 299 301 303 303 303 301 299 296 293 289 287 285 283
264 265 261 259 265 267 265 266 267 269 265 263 263 262 261 259 260 260 261 266 276 285 290 298 302 301 302 303 302 302 304 300 294 294 296 299 301 304 306 304 302 301 301 298 295 293 291 289 285
260 262 268 271 267 265 265 270 268 270 268 265 267 265 266 263 261 260 260 267 278 286 293 299 303 300 301 300 300 300 302 298 296 297 299 301 302 306 306 303 302 302 302 299 298 296 293 290 287
268 269 269 274 276 275 267 264 271 273 269 268 264 267 265 265 260 260 262 267 276 283 294 301 304 300 300 297 298 300 300 298 298 301 301 302 303 306 305 303 303 302 301 301 298 296 295 294 293
269 274 276 274 273 272 276 271 266 270 274 272 265 265 267 263 261 262 262 266 276 283 293 300 303 299 295 295 296 300 299 299 301 301 301 302 303 304 302 303 304 304 304 302 301 301 300 297 293
264 268 271 271 272 277 277 273 271 272 272 271 266 262 264 263 260 260 263 266 274 283 291 298 299 296 294 293 297 299 299 300 301 301 300 303 302 302 303 306 307 307 305 306 306 305 300 299 299
268 267 266 268 271 272 273 274 274 272 274 272 266 262 262 263 263 261 261 264 274 282 290 294 294 292 291 293 297 297 298 300 300 301 301 301 301 303 306 307 308 307 309 310 307 305 304 304 303
268 269 272 272 273 271 273 272 273 274 274 274 263 258 259 263 265 262 261 267 275 282 288 291 291 289 289 294 295 296 298 300 300 300 300 300 302 305 307 309 311 312 312 310 310 311 310 309 311
272 272 273 272 272 270 273 275 273 276 275 265 262 258 258 262 263 265 266 270 277 284 289 291 289 288 292 294 295 296 298 299 299 299 300 301 303 307 311 313 314 314 314 314 316 315 315 318 317
276 276 274 270 270 274 276 273 278 274 274 274 266 258 257 258 266 269 270 273 281 287 290 289 287 289 292 293 294 297 298 297 299 299 303 304 306 309 313 315 315 315 316 319 319 321 322 323 321
272 269 268 273 277 278 271 272 279 276 268 271 275 269 265 265 271 273 276 281 286 287 287 286 288 290 291 292 295 297 297 298 300 301 305 307 308 312 316 316 317 318 321 321 323 325 324 326 321
269 268 276 271 270 272 276 278 278 275 275 275 271 270 272 272 281 276 279 286 285 285 284 285 288 288 290 294 296 297 298 300 302 305 305 308 311 315 316 317 318 321 321 324 328 322 326 329 320
263 267 266 266 270 274 277 276 274 274 275 273 270 271 273 276 279 282 285 285 284 283 283 285 286 288 292 295 297 299 300 302 306 306 308 310 314 316 317 318 320 323 323 327 326 326 326 329 310
265 266 269 272 268 269 271 268 271 276 273 273 273 275 278 287 288 290 289 285 284 284 282 284 286 289 293 297 298 300 301 303 306 307 309 313 316 317 319 319 322 324 326 331 326 329 329 326 302
257 256 260 261 265 264 266 268 276 276 276 272 275 279 282 287 287 284 282 282 285 282 282 283 286 289 293 296 299 301 302 303 307 308 312 315 316 318 319 320 323 326 330 331 329 332 331 324 306
Height
5916 5917 5918 5920 5925 5925 5926 5927 5928 5930 5931 5932 5933 5934 5934 5933 5933 5935 5934 5934 5933 5934 5934 5934 5933 5933 5932 5930 5929 5927 5925 5924 5923 5921 5920 5918 5916 5914 5912 5910 5909 5908 5906 5904 5903 5903 5903 5903 5903
5917 5918 5919 5920 5923 5924 5926 5926 5928 5929 5931 5932 5933 5933 5934 5933 5933 5934 5935 5935 5935 5934 5934 5934 5933 5933 5931 5930 5929 5927 5925 5924 5922 5921 5919 5917 5916 5914 5912 5910 5909 5908 5906 5905 5904 5903 5903 5902 5901
5917 5918 5920 5920 5922 5925 5926 5927 5928 5929 5931 5932 5933 5933 5933 5933 5933 5934 5935 5935 5935 5934 5934 5934 5933 5932 5931 5930 5929 5927 5925 5923 5921 5920 5918 5916 5915 5913 5912 5910 5908 5907 5905 5904 5904 5903 5902 5901 5899
5918 5920 5921 5922 5924 5926 5927 5927 5928 5929 5930 5932 5932 5932 5933 5934 5934 5934 5934 5934 5934 5934 5934 5934 5933 5932 5931 5929 5928 5927 5925 5922 5920 5919 5917 5915 5913 5912 5911 5909 5907 5905 5904 5903 5902 5901 5900 5899 5898
5917 5920 5921 5923 5923 5925 5926 5926 5928 5929 5930 5932 5931 5932 5933 5933 5933 5933 5933 5934 5933 5934 5934 5933 5932 5931 5929 5928 5927 5925 5923 5922 5919 5917 5915 5913 5911 5909 5908 5907 5904 5902 5901 5900 5899 5899 5897 5896 5896
5917 5920 5922 5922 5923 5924 5925 5925 5926 5928 5930 5930 5930 5931 5932 5933 5932 5932 5932 5933 5933 5933 5933 5932 5930 5929 5928 5927 5925 5923 5921 5919 5917 5915 5913 5910 5909 5906 5905 5903 5902 5900 5898 5897 5896 5895 5895 5894 5893
5916 5919 5920 5921 5923 5923 5924 5925 5925 5927 5929 5930 5929 5930 5931 5931 5931 5931 5932 5932 5932 5931 5931 5930 5928 5927 5926 5925 5923 5921 5918 5916 5914 5912 5910 5908 5905 5904 5901 5900 5899 5897 5895 5894 5892 5891 5890 5890 5889
5915 5917 5918 5920 5921 5923 5922 5923 5924 5926 5926 5928 5928 5929 5928 5929 5929 5930 5930 5930 5929 5930 5928 5927 5927 5925 5923 5922 5920 5918 5915 5913 5910 5908 5905 5903 5901 5900 5899 5897 5895 5893 5892 5890 5888 5887 5885 5885 5885
5914 5916 5917 5918 5920 5922 5921 5922 5923 5924 5925 5925 5925 5924 5926 5926 5927 5928 5928 5927 5927 5927 5927 5926 5924 5921 5920 5919 5917 5915 5912 5909 5906 5903 5901 5899 5897 5896 5895 5893 5891 5889 5887 5886 5884 5882 5881 5880 5879
5914 5914 5915 5918 5918 5919 5919 5919 5921 5922 5922 5923 5923 5923 5924 5924 5925 5925 5924 5925 5924 5924 5923 5922 5921 5919 5917 5915 5913 5911 5908 5905 5903 5899 5896 5895 5894 5892 5890 5888 5887 5885 5883 5881 5879 5877 5875 5874 5873
5912 5913 5913 5915 5916 5917 5917 5918 5917 5919 5919 5920 5920 5920 5920 5921 5921 5921 5922 5920 5920 5921 5920 5918 5916 5915 5913 5911 5908 5906 5903 5900 5897 5895 5892 5891 5889 5888 5886 5883 5881 5879 5877 5874 5872 5871 5869 5867 5866
5911 5912 5912 5912 5911 5914 5913 5916 5914 5916 5917 5916 5915 5915 5915 5915 5916 5917 5917 5917 5917 5917 5915 5914 5912 5910 5908 5906 5903 5900 5897 5895 5892 5889 5887 5886 5885 5883 5881 5878 5876 5873 5870 5868 5866 5864 5862 5861 5860
5908 5910 5910 5909 5908 5910 5910 5911 5911 5912 5912 5911 5911 5910 5912 5912 5912 5912 5912 5912 5912 5912 5911 5909 5907 5905 5902 5900 5897 5894 5892 5889 5886 5883 5881 5880 5878 5876 5874 5871 5869 5866 5864 5862 5860 5858 5856 5853 5852
5905 5905 5905 5907 5906 5906 5906 5906 5908 5907 5906 5906 5907 5906 5906 5907 5906 5907 5907 5908 5908 5907 5906 5904 5902 5899 5897 5893 5891 5888 5885 5883 5880 5878 5875 5874 5872 5869 5867 5865 5862 5860 5858 5855 5853 5850 5848 5846 5844
5899 5900 5901 5903 5901 5901 5900 5904 5904 5898 5901 5901 5900 5900 5901 5901 5901 5902 5902 5903 5904 5902 5900 5898 5897 5895 5891 5888 5885 5882 5879 5877 5874 5872 5870 5868 5865 5863 5860 5857 5855 5852 5849 5846 5844 5841 5838 5836 5834
5894 5895 5898 5897 5897 5896 5895 5900 5896 5895 5897 5893 5894 5894 5895 5896 5896 5897 5897 5897 5898 5897 5894 5892 5890 5888 5885 5882 5879 5876 5873 5870 5866 5864 5862 5860 5857 5854 5851 5848 5845 5843 5840 5837 5833 5830 5828 5825 5823
5889 5890 5889 5890 5891 5889 5889 5892 5890 5889 5889 5888 5887 5888 5888 5889 5890 5890 5891 5890 5891 5890 5888 5886 5883 5881 5878 5875 5871 5868 5865 5862 5858 5856 5853 5850 5847 5844 5840 5837 5834 5831 5827 5824 5821 5818 5816 5813 5809
5881 5880 5882 5882 5885 5882 5883 5885 5882 5882 5882 5882 5881 5882 5882 5882 5883 5881 5884 5884 5882 5882 5881 5879 5876 5873 5870 5867 5863 5860 5857 5853 5850 5848 5844 5841 5837 5834 5830 5826 5822 5818 5814 5810 5806 5802 5798 5794 5792
5873 5874 5875 5874 5872 5871 5874 5878 5875 5872 5875 5876 5875 5873 5874 5875 5874 5874 5876 5876 5875 5873 5872 5871 5868 5864 5861 5857 5854 5851 5848 5845 5842 5839 5835 5831 5827 5823 5818 5813 5810 5805 5801 5796 5791 5787 5782 5776 5770
5867 5864 5866 5865 5863 5860 5861 5867 5865 5866 5866 5866 5866 5866 5867 5866 5867 5867 5868 5868 5867 5865 5863 5861 5859 5856 5853 5849 5845 5842 5839 5835 5832 5829 5825 5821 5817 5812 5807 5802 5796 5791 5786 5781 5775 5768 5762 5754 5745
5860 5857 5857 5855 5851 5851 5851 5853 5855 5857 5857 5858 5857 5857 5856 5858 5859 5860 5860 5860 5857 5856 5854 5852 5849 5846 5843 5839 5836 5833 5829 5826 5822 5818 5815 5811 5806 5800 5795 5789 5783 5777 5770 5763 5756 5748 5739 5732 5719
5849 5848 5845 5844 5843 5843 5842 5840 5845 5847 5848 5847 5848 5848 5847 5847 5849 5852 5853 5851 5849 5847 5846 5843 5840 5837 5833 5829 5826 5824 5820 5816 5812 5808 5804 5799 5794 5788 5782 5775 5768 5761 5753 5745 5736 5726 5714 5699 5684
5838 5836 5835 5834 5833 5832 5834 5826 5836 5839 5838 5837 5837 5837 5839 5837 5838 5841 5843 5842 5840 5838 5836 5834 5829 5827 5824 5822 5818 5813 5810 5806 5802 5798 5793 5787 5782 5776 5769 5762 5753 5744 5735 5725 5714 5700 5685 5665 5643
5826 5826 5825 5822 5820 5817 5824 5818 5827 5827 5826 5825 5827 5830 5829 5827 5828 5831 5833 5832 5831 5828 5825 5822 5819 5816 5814 5811 5808 5804 5800 5796 5791 5786 5782 5776 5770 5763 5755 5746 5737 5728 5717 5706 5691 5674 5653 5633 5612
5817 5815 5811 5808 5804 5807 5811 5803 5813 5816 5815 5813 5816 5817 5820 5819 5818 5821 5823 5822 5820 5817 5814 5811 5809 5806 5804 5800 5797 5793 5790 5785 5780 5775 5770 5764 5758 5750 5741 5732 5723 5712 5700 5685 5670 5649 5627 5607 5587
5803 5802 5799 5794 5795 5797 5797 5789 5801 5802 5806 5803 5804 5805 5807 5809 5809 5810 5810 5810 5808 5806 5804 5801 5799 5796 5794 5791 5787 5783 5778 5774 5769 5764 5758 5752 5745 5737 5728 5718 5708 5695 5681 5666 5648 5628 5610 5590 5571
5790 5784 5794 5784 5783 5779 5784 5785 5788 5791 5793 5794 5796 5797 5799 5798 5800 5799 5798 5798 5797 5796 5794 5792 5789 5786 5784 5781 5777 5772 5767 5762 5758 5752 5747 5740 5732 5724 5715 5705 5693 5680 5665 5648 5631 5613 5596 5577 5560
5772 5777 5775 5771 5768 5767 5770 5772 5774 5781 5783 5783 5784 5787 5789 5789 5791 5788 5788 5787 5786 5785 5783 5782 5779 5776 5773 5770 5766 5761 5756 5751 5746 5740 5734 5727 5719 5711 5702 5691 5679 5666 5651 5633 5616 5600 5582 5565 5554
5760 5759 5757 5760 5757 5755 5755 5754 5767 5772 5773 5773 5775 5776 5778 5776 5778 5776 5775 5776 5777 5775 5773 5772 5769 5766 5763 5759 5755 5751 5745 5740 5734 5728 5721 5714 5707 5699 5689 5678 5666 5652 5636 5618 5603 5588 5572 5557 5550
5740 5740 5743 5739 5741 5742 5740 5735 5762 5760 5758 5762 5763 5765 5766 5764 5765 5764 5764 5765 5765 5764 5762 5761 5759 5756 5752 5749 5744 5739 5734 5729 5723 5716 5709 5702 5695 5686 5676 5665 5653 5638 5621 5605 5594 5579 5563 5550 5546